Regional Weather Roundup
Issued by NWS Albany, NY

Home | Current Version | Previous Version | Text Only | Print | Product List | Glossary On
Versions: 1 2 3 4 5 6 7 8 9 10 11 12 13 14 15 16 17 18 19 20 21 22 23 24 25 26 27 28 29 30 31 32 33 34 35 36 37 38 39 40 41 42 43 44 45 46 47 48 49 50
000
ASUS41 KALY 251910
RWRALY

NEW YORK STATE HOURLY WEATHER ROUNDUP
NATIONAL WEATHER SERVICE ALBANY NY
200 PM EST TUE NOV 25 2014

NOTE: "FAIR" INDICATES FEW OR NO CLOUDS BELOW 12,000 FEET WITH NO
SIGNIFICANT WEATHER AND/OR NO OBSTRUCTIONS TO VISIBILITY.

NYZ032-033-038>043-046>054-057>066-NYZ062>081-252000-
EAST


CITY           SKY/WX    TMP DP  RH WIND       PRES   REMARKS
ALBANY         CLOUDY    52  25  35 W12G22    29.92F
GLENS FALLS    PTSUNNY   50  26  39 SW12      29.90F
POUGHKEEPSIE   CLOUDY    54  27  35 SW8       29.96S
NEWBURGH       PTSUNNY   52  30  43 W21       29.97S
MONTGOMERY     CLOUDY    53  26  35 W9G17     29.95S
WHITE PLAINS   CLOUDY    52  25  35 W10       29.96F
ISLIP          CLOUDY    55  29  36 W7        29.97S
NEW YORK CITY  CLOUDY    54  26  34 W8        29.98F
CENTRAL PARK   CLOUDY    54  26  34 CALM      30.01S
$$

NYZ005>009-017-018-044>046-055-056-252000-
CENTRAL


CITY           SKY/WX    TMP DP  RH WIND       PRES   REMARKS
FULTON         PTSUNNY   48  27  44 SW13      29.93R
SYRACUSE       PTSUNNY   49  28  44 W12       29.93R
ROME           PTSUNNY   48  28  46 W14G20    29.94S
ELMIRA         PTSUNNY   50  26  39 SW20G32   29.93F
BINGHAMTON     PTSUNNY   45  25  45 SW15G26   29.92S
MONTICELLO     CLOUDY    46  25  42 W12G18    29.96R
$$

NYZ026>034-041>043-252000-
NORTH


CITY           SKY/WX    TMP DP  RH WIND       PRES   REMARKS
WATERTOWN      CLOUDY    45  28  51 SW18G28   29.91R
FORT DRUM      NOT AVBL
MASSENA        CLOUDY    44  31  60 SW24G35   29.85R
SARANAC LAKE   CLOUDY    38  25  59 SW17G29   29.82R WCI  28
PLATTSBURGH    CLOUDY    47  26  44 VRB7G22   29.86R
$$

NYZ001>004-010>016-019>021-252000-
WEST


CITY           SKY/WX    TMP DP  RH WIND       PRES   REMARKS
NIAGARA FALLS  LGT RAIN  38  30  73 W25G33    29.93R WCI  27
BUFFALO        CLOUDY    40  30  67 SW25G37   29.93R WCI  29
DUNKIRK        CLOUDY    39  29  67 SW22G31   29.98R WCI  29
JAMESTOWN      CLOUDY    37  25  60 SW17G26   29.96R WCI  28
WELLSVILLE     SUNNY     42  22  44 SW18G36   29.92S
ROCHESTER      CLOUDY    43  26  51 W23G33    29.94R
PENN YAN       MOSUNNY   49  26  41 SW18G29   29.92R
$$

             KEY
       WCI = WIND CHILL INDEX
       VSB = VISIBILITY
       HX  = HEAT INDEX
$$



USA.gov is the U.S. government's official web portal to all federal, state and local government web resources and services.